TimeEST,TemperatureF,Dew PointF,Humidity,Sea Level PressureIn,VisibilityMPH,Wind Direction,Wind SpeedMPH,Gust SpeedMPH,PrecipitationIn,Events,Conditions,WindDirDegrees,DateUTC
12:53 AM,25.0,12.0,58,30.53,10.0,NE,3.5,-,N/A,,Clear,50,2011-12-11 05:53:00
1:53 AM,25.0,12.0,58,30.54,10.0,Calm,Calm,-,N/A,,Clear,0,2011-12-11 06:53:00
2:53 AM,25.0,12.0,58,30.54,10.0,Calm,Calm,-,N/A,,Clear,0,2011-12-11 07:53:00
3:53 AM,25.0,12.0,58,30.54,10.0,Calm,Calm,-,N/A,,Clear,0,2011-12-11 08:53:00
4:53 AM,25.0,12.0,58,30.54,10.0,Calm,Calm,-,N/A,,Clear,0,2011-12-11 09:53:00
5:53 AM,24.1,10.9,57,30.57,10.0,Calm,Calm,-,N/A,,Clear,0,2011-12-11 10:53:00
6:53 AM,24.1,10.9,57,30.58,10.0,Calm,Calm,-,N/A,,Clear,0,2011-12-11 11:53:00
7:53 AM,21.9,12.0,66,30.59,10.0,Calm,Calm,-,N/A,,Clear,0,2011-12-11 12:53:00
8:53 AM,25.0,14.0,63,30.59,10.0,NE,5.8,-,N/A,,Clear,50,2011-12-11 13:53:00
9:53 AM,28.9,15.1,56,30.58,10.0,Variable,4.6,-,N/A,,Clear,0,2011-12-11 14:53:00
10:53 AM,33.1,17.1,52,30.58,10.0,Calm,Calm,-,N/A,,Clear,0,2011-12-11 15:53:00
11:53 AM,37.0,17.1,44,30.55,10.0,Variable,3.5,-,N/A,,Clear,0,2011-12-11 16:53:00
12:53 PM,41.0,17.1,38,30.52,10.0,Calm,Calm,-,N/A,,Clear,0,2011-12-11 17:53:00
1:53 PM,43.0,15.1,32,30.50,10.0,Calm,Calm,-,N/A,,Clear,0,2011-12-11 18:53:00
2:53 PM,45.0,12.9,27,30.48,10.0,Calm,Calm,-,N/A,,Clear,0,2011-12-11 19:53:00
3:53 PM,45.0,14.0,29,30.47,10.0,Calm,Calm,-,N/A,,Clear,0,2011-12-11 20:53:00
4:53 PM,43.0,12.9,30,30.47,10.0,Calm,Calm,-,N/A,,Clear,0,2011-12-11 21:53:00
5:53 PM,39.9,12.9,33,30.48,10.0,Calm,Calm,-,N/A,,Clear,0,2011-12-11 22:53:00
6:53 PM,39.0,14.0,36,30.48,10.0,Calm,Calm,-,N/A,,Clear,0,2011-12-11 23:53:00
7:53 PM,37.0,15.1,41,30.48,10.0,NE,3.5,-,N/A,,Clear,50,2011-12-12 00:53:00
8:53 PM,36.0,16.0,44,30.49,10.0,Calm,Calm,-,N/A,,Clear,0,2011-12-12 01:53:00
9:53 PM,36.0,16.0,44,30.47,10.0,NE,3.5,-,N/A,,Clear,50,2011-12-12 02:53:00
10:53 PM,35.1,16.0,46,30.46,10.0,ENE,3.5,-,N/A,,Clear,60,2011-12-12 03:53:00
11:53 PM,34.0,15.1,46,30.45,10.0,Calm,Calm,-,N/A,,Clear,0,2011-12-12 04:53:00